Вернуться в каталог

COSMOS 2251 DEB

АктивенLEO
NORAD 37084·DEBRIS·🇷🇺 Russia

Запущен Jun 16, 1993 с Plesetsk Cosmodrome

Loading…

Ближайшие Пролёты (ближайшие 24 часа)

TLE

СвежийSource: Space-Track

Эпоха: Sep 12, 2026, 21:42 UTC

1 37084U 93036BFE 26255.90423765  .00002800  00000-0  18599-3 0  9994
2 37084  74.0279 321.2473 0091620 327.2735  32.2796 15.04358615703863

Отслеживайте COSMOS 2251 DEB в реальном времени с AllMySat

Download on the App Store